Miscellaneous Local Product
Issued by NWS North Platte, NE

Home | Current Version | Previous Version | Text Only | Print | Product List | Glossary On
Versions: 1 2 3 4 5 6 7 8 9 10 11 12 13 14 15 16 17 18 19 20 21 22 23 24 25 26 27 28 29 30 31 32 33 34 35 36 37 38 39 40 41 42 43 44 45 46 47 48 49 50
000
AXUS43 KLBF 042010
MISLBF


WESTERN AND NORTH CENTRAL NEBRASKA HOURLY WEATHER ROUNDUP
NATIONAL WEATHER SERVICE NORTH PLATTE NE
300 PM CDT TUE AUG 04 2015

***STATIONS NOT REPORTING VARIABLES SUCH AS SKY/WEATHER OR
PRESSURE ARE PROVIDED BY THE NEBRASKA DEPARTMENT OF
ROADS...RAWS...AND APRS NETWORKS...AND ARE NOT UNDER
NATIONAL WEATHER SERVICE QUALITY CONTROL***

...OBSERVATIONS IN AND NEAR THE EASTERN PANHANDLE OF NEBRASKA...

CITY           SKY/WX    TMP DP  RH WIND       PRES   REMARKS
PINE RIDGE     PTSUNNY   81  59  47 S8        29.99R
CHADRON        PTSUNNY   80  60  50 S21G29    29.96R
ALLIANCE       CLOUDY    71  62  73 SE18      30.02F
SIDNEY         CLOUDY    69  58  67 E10       30.06R
BIG SPRINGS      N/A     66  64  93 S3          N/A
$$

...OBSERVATIONS IN NORTH CENTRAL NEBRASKA...

CITY           SKY/WX    TMP DP  RH WIND       PRES   REMARKS
THEDFORD       CLOUDY    72  61  68 S17G26    29.98S
AINSWORTH      CLOUDY    78  63  59 E12       29.98R
O`NEILL        MOSUNNY   77  65  65 E9        29.98R
ORD            CLOUDY    81  63  54 S14G28    29.91S
BROKEN BOW     CLOUDY    78  61  55 S9        29.97R
SPRINGVIEW       N/A     78  66  66 E9          N/A
CHAMBERS         N/A     80  65  59 E8          N/A
EWING            N/A     75  68  79 E5          N/A
$$

...OBSERVATIONS IN SOUTHWEST NEBRASKA AND FAR NORTHEAST COLORADO...

CITY           SKY/WX    TMP DP  RH WIND       PRES   REMARKS
WRAY           MOCLDY    76  62  61 NE13G24   29.98R
HOLYOKE        FAIR      73  61  64 NE10      30.01S
IMPERIAL       CLOUDY    63  59  87 N10       29.98S
OGALLALA       CLOUDY    66  64  95 SE6       30.00F
NORTH PLATTE   TSTM      66  64  93 W12       30.05R
MCCOOK         TSTM      65  61  87 N10G30    29.97R FOG
LEXINGTON      CLOUDY    71  67  87 NE6       29.96F
PAXTON           N/A     62  60  95 E9          N/A
BRADY            N/A     65  63  92 CALM        N/A
CALLAWAY         N/A     67  65  94 S6          N/A
$$

...NORTH PLATTE AREA...

CITY           SKY/WX    TMP DP  RH WIND       PRES   REMARKS
AIRPORT        TSTM      66  64  93 W12       30.05R
DOWNTOWN         N/A     65  64  97 CALM        N/A
HILLCREST        N/A     64  63  97 W3          N/A
$$

...SOME WEATHER OBSERVATIONS FROM AROUND THE REGION...

CITY           SKY/WX    TMP DP  RH WIND       PRES   REMARKS
DENVER         MOSUNNY   89  38  16 NW13G18   30.05F
LARAMIE        CLOUDY    68  46  45 W22G35    30.19F
CHEYENNE       PTSUNNY   74  47  38 W22G36    30.12S
SCOTTSBLUFF    PTSUNNY   79  56  45 E9        29.99S
RAPID CITY     MOSUNNY   80  63  55 S16G23    29.96R
PIERRE         PTSUNNY   82  62  50 E16       29.94S
WINNER         FAIR      83  62  49 SE12      29.96S
SIOUX FALLS    CLOUDY    76  62  62 SE5       29.99F
OMAHA          CLOUDY    74  66  76 SE12      29.94F
GRAND ISLAND   PTSUNNY   81  66  60 SE16      29.93F
KANSAS CITY    CLOUDY    82  71  69 E14G22    29.97F
WICHITA        LGT RAIN  82  70  66 S15       29.95F
HAYS           SUNNY     88  64  45 S20G28    29.91R
LIBERAL        SUNNY     88  64  45 S9G17     29.93F
GOODLAND       MOSUNNY   82  61  48 NE31G39   29.96R HAZE
$$



USA.gov is the U.S. government's official web portal to all federal, state and local government web resources and services.